Location: Aalen
(48.8330°N, 10.1000°E)
Time: 17:28:46
(UTC+02:00)

Transit 4A - Pass Details

Date: 03 August 2021
Orbit: 871 x 974 km, 66.8° (Epoch: 16 September)

Event Time Altitude Azimuth Distance (km) Brightness Sun altitude
Rises 02:35:54 0° 250° (WSW) 3,479 - -21.9°
Reaches altitude 10° 02:38:41 10° 260° (W) 2,533 - -21.7°
Exits shadow 02:39:21 13° 264° (W) 2,325 9.7 -21.7°
Maximum altitude 02:43:50 31° 322° (NW) 1,484 9.2 -21.4°
Drops below altitude 10° 02:48:59 10° 24° (NNE) 2,529 11.4 -21.1°
Sets 02:51:47 0° 35° (NE) 3,473 12.3 -21.0°
